sat.trackr.live / text

‹ back to catalog

PROPCUBE 3

NORAD 40973 · 2015-058K

PAYLOAD ACTIVE UNKNOWN

§ Identity

Operator
Country
US
Launch date
2015-10-08
Launch site
AFWTR
Launch vehicle
Mass (kg)
RCS (m²)

Purposes: tech_demo

External: N2YO · Heavens-Above · Gunter

§ Orbital elements

Epoch: 2026-09-12T14:24:39.020832Z

Period
96.34 min
Inclination
64.7687°
Eccentricity
0.0131039
Mean motion
14.94755194 rev/d
Perigee alt
491.9 km
Apogee alt
674.4 km
Semi-major
6,961.3 km
B*
1.4076e-4
RAAN
339.3020°
Arg perigee
26.7356°
Mean anomaly
334.0433°
Rev number
12,786

§ Raw data

PROPCUBE 31 40973U 15058K   26255.60045163  .00001631  00000+0  14076-3 0  99982 40973  64.7687 339.3020 0131039  26.7356 334.0433 14.94755194127862

JSON: /api/v1/satellites/40973 · /tle

For live sub-satellite position, see the globe view (requires WebGL).

§ Visibility from observer

Set your observer location to see the next 7 days of passes ≥ 10°. The values pass through the URL so the page stays shareable.

No JS? Fill the form by hand. The geolocation button needs JavaScript.